{"data":{"norad_id":58635,"epoch":"2026-09-20T17:01:23.246112Z","epoch_age_seconds":131638,"freshness":"FRESH","line1":"1 58635U 23203T   26263.70929683 -.00000372  00000+0 -39868-5 0  9992","line2":"2 58635  43.0040  46.0258 0001181 269.3449  90.7267 15.27573230154616","mean_motion":15.2757323,"eccentricity":0.0001181,"inclination_deg":43.004,"raan_deg":46.0258,"arg_perigee_deg":269.3449,"mean_anomaly_deg":90.7267,"bstar":-3.9868e-6,"rev_number":15461,"period_min":94.267166491259,"perigee_km":482.25905945796,"apogee_km":483.87967640207,"semimajor_km":6861.20636793,"source":"CELESTRAK","updated_at":"2026-09-21T09:00:33.940516Z"}}